STARLINK-30065

decayed
NORAD ID: 55701 Int'l Des: 2023-026 Owner: SPXS Country: US Constellation: starlink
LEOCIRCULAR
Group

About STARLINK-30065

Description loading...

Altitude History

Altitude vs Time

uPlot chart will show altitude changes over time

Two-Line Element Set

1 55701U 23026G 24207.04844509 .13060781 89550-5 57095-2 0 9996
2 55701 42.9891 67.3115 0013044 278.5663 230.7082 16.21294983 81753
Epoch: Jul 25, 2024 • Age: 10105 hours

Current Status

Position data unavailable
Launch Date Feb 27, 2023
Age 2.5 years
Decay Date Jul 25, 2024
Type internet

Technical Details

Classification Payload
Mass 730.00 kg
Dry Mass 700.00 kg
Total Mass 730.00 kg
Length 0.30 m
Diameter 4.10 m
Span 29.00 m
Shape Box + pan
Manufacturer SPXS
Bus Type Starlink V2M
Phase Status Unknown Transfer Status
Owner/State SPXS/US

Large Constellations

Loading constellations...